Regional Weather Roundup
Issued by NWS New Orleans/Baton Rouge, LA

Home | Current Version | Previous Version | Text Only | Print | Product List | Glossary Off
Versions: 1 2 3 4 5 6 7 8 9 10 11 12 13 14 15 16 17 18 19 20 21 22 23 24 25 26 27 28 29 30 31 32 33 34 35 36 37 38 39 40 41 42 43 44 45 46 47 48 49 50

700
ASUS44 KLIX 270605
RWRLIX
NEW ORLEANS REGIONAL WEATHER ROUNDUP
NATIONAL WEATHER SERVICE NEW ORLEANS LA
1200 AM CST THU NOV 27 2014

NOTE: "FAIR" INDICATES FEW OR NO CLOUDS BELOW 12,000 FEET WITH NO
      SIGNIFICANT WEATHER AND/OR OBSTRUCTIONS TO VISIBILITY.
      SKY/WX - SKY CONDITION AND SIGNIFICANT WEATHER.
      TMP - AIR TEMPERATURE.     DP    - DEWPOINT TEMPERATURE.
      RH  - RELATIVE HUMIDITY.   PRES  - PRESSURE.
      HI  - HEAT INDEX.          WCI   - WIND CHILL INDEX.

*  THESE STATIONS ARE NOT NWS OR FAA STATIONS AND ARE NOT UNDER
   NWS QUALITY CONTROL.

LAZ038-040-048-061>063-065>067-069-270700-
SOUTHEAST LOUISIANA

CITY           SKY/WX    TMP DP  RH WIND       PRES   REMARKS
N.O. AUDUBON     N/A     55  50  82 MISG        N/A
6HR MIN TEMP:  52; 6HR MAX TEMP:  59;

N.O. INTL ARPT CLEAR     57  48  72 W13       30.27S
6HR MIN TEMP:  56; 6HR MAX TEMP:  61;

N.O. LAKEFRONT CLEAR     60  50  69 W20       30.27R
6HR MIN TEMP:  58; 6HR MAX TEMP:  62;

N.O. DOWNTOWN*   N/A     57  46  67 SW5       30.28R
6HR MIN TEMP:  55; 6HR MAX TEMP:  63;

SLIDELL        CLEAR     56  47  71 VRB5      30.26R
6HR MIN TEMP:  56; 6HR MAX TEMP:  62;

BATON ROUGE    CLEAR     50  43  77 W6        30.27R
6HR MIN TEMP:  50; 6HR MAX TEMP:  62;

BOOTHVILLE     CLEAR     61  52  72 W12       30.28R
6HR MIN TEMP:  60; 6HR MAX TEMP:  62;

BELLE CHASSE   CLEAR     56  48  74 SW5       30.27S
6HR MIN TEMP:  51; 6HR MAX TEMP:  58;

BOGALUSA*        N/A     49  41  74 W5        30.27R
6HR MIN TEMP:  47; 6HR MAX TEMP:  56;

NEW ROADS*       N/A     48  44  84 NW6       30.29R
6HR MIN TEMP:  46; 6HR MAX TEMP:  61;

GONZALES*        N/A     51  50  99 CALM      30.28R
6HR MIN TEMP:  50; 6HR MAX TEMP:  60;

HAMMOND*       CLEAR     50  43  76 NW3       30.28R
HOUMA*         CLEAR     52  51  97 W5        30.29S
6HR MIN TEMP:  51; 6HR MAX TEMP:  57;

PORT FOURCHON* CLEAR     61  55  82 W8        30.32R

$$

MSZ070-080>082-270700-
SOUTHERN MISSISSIPPI

CITY           SKY/WX    TMP DP  RH WIND       PRES   REMARKS
MCCOMB         CLEAR     49  39  68 NW5       30.25S
6HR MIN TEMP:  49; 6HR MAX TEMP:  59;

GULFPORT       CLEAR     54  45  71 W6        30.24R
6HR MIN TEMP:  54; 6HR MAX TEMP:  58;

BILOXI         CLEAR     56  46  70 W5        30.24R
6HR MIN TEMP:  56; 6HR MAX TEMP:  58;

PASCAGOULA     CLEAR     54  46  74 W5        30.23S
6HR MIN TEMP:  53; 6HR MAX TEMP:  58;


$$

COASTAL OBSERVATIONS
LAKE AND NEARSHORE STATIONS

STATION/POSITION TIME  TEMP    WIND        PRES    WAVE
                       AIR SEA DIR/SP/G            HT/PER
                 (UTC) (F)     (DEG/KT/KT) (MB)    (FT/S)
PASCAGOULA       0600   58     260/ 12/ 17 1023.4
WAVELAND YACHT   0600   56     260/  5/  7 1023.4
GRAND ISLE       0600   61 60  300/ 12/ 14 1025.8
SOUTHWEST PASS   0600   66                 1025.7
NEW CANAL        0600   59 54  250/  8/ 12 1025.1
SHELL BEACH      0600   56 53  250/ 12/ 14 1024.6

OFFSHORE STATIONS

STATION/POSITION TIME  TEMP    WIND        PRES    WAVE
                       AIR SEA DIR/SP/G            HT/PER
                 (UTC) (F)     (DEG/KT/KT) (MB)    (FT/S)
64 S DAUPHIN ISL 0541   66 70  280/ 27/ 33 1025.4    5/ 5

$$




USA.gov is the U.S. government's official web portal to all federal, state and local government web resources and services.